Eglin AFB, FL

2:06 PM CST on December 08, 2016 (GMT -0600)
Eglin Air Force Base

Weather History for KVPS - December, 2012

Change the Weather History Date:

Monday, December 10, 2012

  Actual Average Record
Temperature  
Mean Temperature 68 °F -  
Max Temperature 77 °F 66 °F 78 °F (1951)
Min Temperature 59 °F 41 °F 22 °F (1955)
Cooling Degree Days 4    
Growing Degree Days 18 (Base 50)    
Moisture  
Dew Point 65 °F    
Average Humidity 85    
Maximum Humidity 94    
Minimum Humidity 74    
Precipitation  
Precipitation 0.00 in - - ()
Sea Level Pressure  
Sea Level Pressure 29.86 in    
Wind  
Wind Speed 11 mph (SW)    
Max Wind Speed 20 mph    
Max Gust Speed 24 mph    
Visibility 10 miles    
Events      
Averages and records for this station are not official NWS values.
T = Trace of Precipitation, MM = Missing Value Source: NWS Daily Summary

Daily Weather History Graph

Daily Weather History Graph

Search for Another Location

Airport or City:

Trip Planner

Search our weather history database for the weather conditions in past years. The results will help you decide how hot, cold, wet, or windy it might be!

Date:

Astronomy

Dec. 10, 2012 Rise Set
Actual Time 6:32 AM CST 4:45 PM CST
Civil Twilight 6:06 AM CST 5:12 PM CST
Nautical Twilight 5:36 AM CST 5:42 PM CST
Astronomical Twilight 5:06 AM CST 6:11 PM CST
Moon 3:23 AM CST (12/10) 2:28 PM CST (12/10)
Length of Visible Light 11h 06m
Length of Day
10h 13m
Waning Crescent, 10% of the Moon is Illuminated
Dec 10
Waning Crescent
Dec 13
New
Dec 19
First Quarter
Dec 28
Full
Jan 4
Last Quarter

Hourly Weather History & Observations

Time (CST) Temp. Dew Point Humidity Pressure Visibility Wind Dir Wind Speed Gust Speed Precip Events Conditions
12:56 AM 69.4 °F 65.1 °F 86% 29.96 in 10.0 mi South 8.1 mph - N/A   Partly Cloudy
1:57 AM 69.4 °F 65.5 °F 87% 29.95 in 10.0 mi South 9.2 mph - N/A   Scattered Clouds
2:55 AM 69.3 °F 65.7 °F 88% 29.94 in 10.0 mi South 10.4 mph - N/A   Partly Cloudy
3:58 AM 69.4 °F 66.2 °F 89% 29.92 in 10.0 mi SSW 9.2 mph - N/A   Scattered Clouds
4:58 AM 69.6 °F 66.4 °F 89% 29.89 in 10.0 mi South 9.2 mph - N/A   Scattered Clouds
5:57 AM 69.8 °F 66.4 °F 89% 29.88 in 10.0 mi South 10.4 mph - N/A   Mostly Cloudy
6:55 AM 70.2 °F 66.6 °F 88% 29.88 in 10.0 mi SSW 9.2 mph - N/A   Mostly Cloudy
7:55 AM 71.8 °F 66.9 °F 85% 29.88 in 10.0 mi SSW 12.7 mph - N/A   Mostly Cloudy
8:55 AM 72.5 °F 66.9 °F 83% 29.91 in 10.0 mi SSW 12.7 mph - N/A   Mostly Cloudy
9:55 AM 73.4 °F 67.6 °F 82% 29.91 in 10.0 mi SSW 12.7 mph - N/A   Mostly Cloudy
10:34 AM 73.4 °F 68.0 °F 83% 29.88 in 10.0 mi SSW 15.0 mph 20.7 mph N/A   Mostly Cloudy
10:55 AM 72.9 °F 67.6 °F 84% 29.88 in 10.0 mi South 11.5 mph - N/A   Mostly Cloudy
11:55 AM 76.5 °F 68.0 °F 75% 29.84 in 10.0 mi South 19.6 mph - N/A   Mostly Cloudy
12:55 PM 75.0 °F 68.5 °F 80% 29.82 in 10.0 mi South 16.1 mph - N/A   Mostly Cloudy
1:39 PM 75.2 °F 68.0 °F 78% 29.78 in 10.0 mi SSW 13.8 mph 21.9 mph N/A   Mostly Cloudy
1:55 PM 74.7 °F 68.9 °F 82% 29.79 in 10.0 mi SSW 16.1 mph 23.0 mph N/A   Mostly Cloudy
2:23 PM 77.0 °F 68.0 °F 74% 29.79 in 10.0 mi SW 16.1 mph 24.2 mph N/A   Mostly Cloudy
2:55 PM 75.7 °F 67.6 °F 76% 29.81 in 10.0 mi SW 15.0 mph 24.2 mph N/A   Mostly Cloudy
3:55 PM 74.1 °F 67.6 °F 80% 29.79 in 10.0 mi WSW 11.5 mph 21.9 mph N/A   Mostly Cloudy
4:53 PM 72.3 °F 67.5 °F 85% 29.78 in 10.0 mi WSW 10.4 mph - N/A   Mostly Cloudy
5:55 PM 70.0 °F 62.1 °F 76% 29.81 in 10.0 mi WSW 6.9 mph - N/A   Scattered Clouds
6:55 PM 68.2 °F 61.7 °F 80% 29.82 in 10.0 mi West 6.9 mph - N/A   Scattered Clouds
7:55 PM 65.3 °F 61.0 °F 86% 29.85 in 10.0 mi West 5.8 mph - N/A   Scattered Clouds
8:55 PM 64.6 °F 61.5 °F 90% 29.85 in 10.0 mi NW 3.5 mph - N/A   Scattered Clouds
9:55 PM 63.5 °F 60.8 °F 91% 29.88 in 10.0 mi WNW 3.5 mph - N/A   Scattered Clouds
10:28 PM 62.6 °F 60.8 °F 94% 29.86 in 10.0 mi West 2.3 mph - N/A   Mostly Cloudy
10:45 PM 62.6 °F 60.8 °F 94% 29.87 in 10.0 mi NW 12.7 mph - N/A   Overcast
10:55 PM 63.1 °F 60.8 °F 92% 29.88 in 10.0 mi NW 11.5 mph - N/A   Overcast
11:21 PM 60.8 °F 59.0 °F 94% 29.87 in 10.0 mi NNW 12.7 mph - N/A   Overcast
11:55 PM 59.5 °F 55.8 °F 87% 29.91 in 10.0 mi NNW 15.0 mph - N/A   Overcast